TDRS 3 1 19548U 88091B 24289.04136350 -.00000299 00000-0 00000-0 0 9991 2 19548 13.0720 345.0810 0036915 335.1963 29.6816 1.00279243119277 HST 1 20580U 90037B 24289.96080940 .00012648 00000-0 55716-3 0 9993 2 20580 28.4685 254.6337 0002594 274.1177 85.9119 15.20267027695419 TDRS 5 1 21639U 91054B 24289.34517747 -.00000301 00000-0 00000-0 0 9998 2 21639 14.1479 358.2228 0006584 232.5065 215.6061 1.00276397121601 TDRS 6 1 22314U 93003B 24290.08591008 -.00000296 00000-0 00000+0 0 9992 2 22314 14.1679 1.5229 0011300 183.9369 184.5785 1.00266556116271 TDRS 7 1 23613U 95035B 24290.14054726 -.00000205 00000-0 00000+0 0 9990 2 23613 13.6323 352.3783 0023033 77.6954 90.6345 1.00274908107045 ISS (ZARYA) 1 25544U 98067A 24290.14075411 .00021220 00000-0 37943-3 0 9996 2 25544 51.6392 76.2978 0009469 72.5190 97.9333 15.49912667477304 LANDSAT 7 1 25682U 99020A 24289.91451537 .00001358 00000-0 28556-3 0 9999 2 25682 97.8809 310.9884 0001353 77.2061 18.4835 14.61042450356767 TERRA 1 25994U 99068A 24290.19310288 .00002012 00000-0 42769-3 0 9996 2 25994 98.0346 350.0648 0002295 19.2960 46.5579 14.60108564320828 TDRS 8 1 26388U 00034A 24289.57790906 .00000099 00000-0 00000+0 0 9999 2 26388 11.7205 36.2427 0006097 198.2069 190.5992 1.00268118 89061 EO 1 1 26619U 00075A 24289.83111028 .00002608 00000-0 47040-3 0 9999 2 26619 98.0322 243.3720 0007623 259.2313 100.8034 14.67321335557169 TIMED 1 26998U 01055B 24290.22586305 .00004644 00000-0 45723-3 0 9995 2 26998 74.0736 18.8450 0001864 333.0856 27.0230 14.92371173240015 TDRS 9 1 27389U 02011A 24289.51715909 .00000011 00000-0 00000+0 0 9996 2 27389 10.8646 52.7235 0006794 137.7695 232.2876 0.98981955 84246 AQUA 1 27424U 02022A 24290.16904238 .00003113 00000-0 65739-3 0 9996 2 27424 98.3436 240.1188 0002466 81.3073 48.4788 14.60082008194369 TDRS 10 1 27566U 02055A 24290.20932064 .00000090 00000-0 00000+0 0 9999 2 27566 9.7872 44.4903 0002407 296.0876 308.9720 1.00277501 80118 SORCE 1 27651U 03004A 24289.92860796 .00007533 00000-0 65244-3 0 9992 2 27651 39.9913 122.7693 0021231 5.6890 354.4140 14.96996160180331 AURA 1 28376U 04026A 24290.14821606 .00003522 00000-0 75411-3 0 9996 2 28376 98.2621 234.2511 0002495 70.3183 289.8285 14.59345899 77357 SWIFT 1 28485U 04047A 24289.96241223 .00027070 00000-0 10412-2 0 9992 2 28485 20.5568 33.5296 0007979 52.1113 308.0045 15.24501457 92744 THEMIS A 1 30580U 07004A 24289.00898502 -.00000436 00000-0 00000-0 0 9998 2 30580 8.6324 255.7749 8394334 342.5138 0.3242 0.87836520 35918 THEMIS D 1 30797U 07004D 24289.72238181 -.00000357 00000-0 00000-0 0 9990 2 30797 4.1317 255.7659 8384816 346.6636 214.6474 0.87837564 35717 THEMIS E 1 30798U 07004E 24289.65565765 -.00000381 00000-0 00000-0 0 9991 2 30798 6.2266 276.7386 8373119 326.7685 207.5183 0.87835008 60550 GLAST 1 33053U 08029A 24289.77115041 .00006572 00000-0 29542-3 0 9999 2 33053 25.5806 100.3188 0010084 5.5718 354.4930 15.18377073902913 WISE 1 36119U 09071A 24290.11393824 .00401822 70218-4 81575-3 0 9993 2 36119 97.1190 330.2767 0001655 173.1054 187.0247 15.99537485827311 TDRS 11 1 39070U 13004A 24290.20746781 .00000078 00000-0 00000+0 0 9993 2 39070 2.8174 15.8118 0003056 68.4495 201.2455 1.00271964 42877 TDRS 12 1 39504U 14004A 24290.08035571 -.00000270 00000-0 00000+0 0 9995 2 39504 3.5755 6.2848 0005837 221.8159 144.9832 1.00275736 39348 GPM 1 39574U 14009C 24289.87095984 .00030336 00000-0 63876-3 0 9995 2 39574 64.9833 188.9645 0007148 265.4708 94.5617 15.45135604603719 MMS 1 1 40482U 15011A 24290.25001157 -.00000777 00000-0 00000+0 0 9995 2 40482 55.1202 3.5984 8978179 152.7880 279.4551 0.28474712 15716 MMS 2 1 40483U 15011B 24290.25001157 -.00000777 00000-0 00000+0 0 9996 2 40483 55.1162 3.6005 8978187 152.7864 278.2413 0.28468414 15691 MMS 3 1 40484U 15011C 24290.25001157 -.00000777 00000-0 00000+0 0 9997 2 40484 55.1184 3.5987 8978157 152.7873 278.3848 0.28468927 15693 MMS 4 1 40485U 15011D 24288.58335648 -.00000909 00000-0 00000-0 0 9994 2 40485 54.8768 3.7749 8999892 152.6319 98.5378 0.28475018 1301